Torna al catalogo

FENGYUN 1C DEB

AttivoPO
NORAD 38824·DEBRIS·🇨🇳 China

Lanciato May 10, 1999 da Taiyuan Satellite Launch Center

Loading…

Prossimi Passaggi (prossime 24 ore)

TLE

AggiornatoSource: Space-Track

Epoca: Sep 14, 2026, 09:16 UTC

1 38824U 99025EVQ 26257.38642094  .00003339  00000-0  16190-2 0  9995
2 38824  99.2983  47.7488 0095265 149.1115 211.5710 14.16749298730372

Traccia FENGYUN 1C DEB in tempo reale con AllMySat

Download on the App Store